Regional Weather Roundup
Issued by NWS Green Bay, WI

Home | Current Version | Previous Version | Text Only | Print | Product List | Glossary On
Versions: 1 2 3 4 5 6 7 8 9 10 11 12 13 14 15 16 17 18 19 20 21 22 23 24 25 26 27 28 29 30 31 32 33 34 35 36 37 38 39 40 41 42 43 44 45 46 47 48 49 50
000
ASUS43 KGRB 270400
RWRGRB

NORTH-CENTRAL AND NORTHEAST WISCONSIN REGIONAL WEATHER ROUNDUP
NATIONAL WEATHER SERVICE GREEN BAY WI
1100 PM CDT SUN MAR 26 2017

WIZ005-009-010>012-018-019-270500-
NORTH CENTRAL WISCONSIN

CITY           SKY/WX    TMP DP  RH WIND       PRES   REMARKS
IRONWOOD       FOG       32  31  96 NW3       29.91F VSB 1/4
MANITOWISH WTR NOT AVBL
ARBOR VITAE    NOT AVBL
EAGLE RIVER    NOT AVBL
LAND O LAKES   NOT AVBL
RHINELANDER    CLOUDY    37  37 100 CALM      29.86F
PHILLIPS       NOT AVBL
ANTIGO         NOT AVBL
TOMAHAWK       NOT AVBL
MERRILL        NOT AVBL
$$

WIZ013-073-270500-
NORTHEAST WISCONSIN

CITY           SKY/WX    TMP DP  RH WIND       PRES   REMARKS
IRON MOUNTAIN  LGT RAIN  36  33  89 CALM      29.85F
MARINETTE        N/A    N/A N/A N/A MISG        N/A
$$

WIZ017-030-035>037-045-270500-
CENTRAL WISCONSIN

CITY           SKY/WX    TMP DP  RH WIND       PRES   REMARKS
MEDFORD        NOT AVBL
WAUSAU         CLOUDY    38  38 100 CALM      29.86S
MOSINEE        NOT AVBL
MARSHFIELD     FOG       38  37  97 W3        29.88R VSB 3/4
WISC RAPIDS    CLOUDY    39  39 100 W3        29.90R FOG
STEVENS POINT  NOT AVBL
WAUPACA        NOT AVBL
SHAWANO        NOT AVBL
CLINTONVILLE   NOT AVBL
WAUTOMA        CLOUDY    39  38  96 SW5       29.91R
$$

WIZ038-039-048-051-270500-
FOX VALLEY

CITY           SKY/WX    TMP DP  RH WIND       PRES   REMARKS
NWS GREEN BAY  LGT RAIN  37  37 100 CALM      29.88S FOG
APPLETON       DRIZZLE   37  37 100 N5        29.86F
OSHKOSH        CLOUDY    39  37  92 NW5       29.88R
FOND DU LAC    LGT RAIN  39  37  92 CALM      29.89R FOG
$$

WIZ022-050-052-270500-
EAST CENTRAL WISCONSIN

CITY           SKY/WX    TMP DP  RH WIND       PRES   REMARKS
EPHRAIM        NOT AVBL
WASHINGTON ISL NOT AVBL
STURGEON BAY   MIX PCPN  34  33  96 N12       29.88S FOG
MANITOWOC      NOT AVBL
SHEBOYGAN      CLOUDY    40  38  93 NW6       29.87R
$$

LMZ563-521-522-541>543-270500-
LAKESHORE

STATION/POSITION TIME  TEMP    WIND        PRES    VSBY  WAVE
                       AIR SEA DIR/SP/G                  HT/PER
                 (UTC) (F)     (DEG/KT/KT) (MB)    (MI)  (FT/S)
SHEBOYGAN LKSHOR 0300   41     330/  5/  5 1011.6S
KEWAUNEE LKSHORE 0330   35     340/  3/  8 1011.2S
NORTHPORT PIER   0340   33     340/  7/  8 1011.5F
CHAMBERS ISLAND  0340   33     350/  5/  6 1011.5S
MENOMINEE LKSHOR 0330   33      20/  4/  5 1011.1S
$$



USA.gov is the U.S. government's official web portal to all federal, state and local government web resources and services.